Weather History for KALB - January, 2013

Change the Weather History Date:

Saturday, January 19, 2013

  Actual Average Record
Temperature  
Mean Temperature 33 °F 22 °F  
Max Temperature 42 °F 30 °F 60 °F (1966)
Min Temperature 24 °F 14 °F -28 °F (1971)
Degree Days  
Heating Degree Days 32 43  
Month to date heating degree days 697 808  
Since 1 July heating degree days 2959 3343  
Cooling Degree Days 0 0  
Month to date cooling degree days 0 0  
Year to date cooling degree days 0 0  
Moisture  
Dew Point 18 °F    
Average Humidity 52    
Maximum Humidity 58    
Minimum Humidity 45    
Precipitation  
Precipitation 0.00 in 0.08 in 1.67 in (1996)
Month to date precipitation 0.46 1.58  
Year to date precipitation 0.46 1.58  
Snow  
Snow 0.00 in 0.60 in 8.50 in (1886)
Month to date snowfall 3.4 11.0  
Since 1 July snowfall 16.8 27.5  
Snow Depth 2.00 in    
Sea Level Pressure  
Sea Level Pressure 30.05 in    
Wind  
Wind Speed 13 mph (South)    
Max Wind Speed 23 mph    
Max Gust Speed 30 mph    
Visibility 10 miles    
Events      
T = Trace of Precipitation, MM = Missing Value Source: NWS Daily Summary

Daily Weather History Graph

Daily Weather History Graph

Search for Another Location

Airport or City:

Trip Planner

Search our weather history database for the weather conditions in past years. The results will help you decide how hot, cold, wet, or windy it might be!

Date:

Astronomy

Jan. 19, 2013 Rise Set
Actual Time 7:20 AM EST 4:51 PM EST
Civil Twilight 6:49 AM EST 5:22 PM EST
Nautical Twilight 6:14 AM EST 5:57 PM EST
Astronomical Twilight 5:41 AM EST 6:31 PM EST
Moon 11:18 AM EST (1/19) 12:50 AM EST (1/19)
Length of Visible Light 10h 33m
Length of Day
9h 31m
First Quarter, 57% of the Moon is Illuminated
Jan 19
First Quarter
Jan 26
Full
Feb 3
Last Quarter
Feb 10
New
Feb 17
First Quarter

Hourly Weather History & Observations

Time (EST) Temp. Windchill Dew Point Humidity Pressure Visibility Wind Dir Wind Speed Gust Speed Precip Events Conditions
12:51 AM 24.1 °F 12.0 °F 9.0 °F 53% 30.27 in 10.0 mi South 13.8 mph 19.6 mph N/A   Overcast
1:51 AM 24.8 °F 14.0 °F 10.4 °F 54% 30.24 in 10.0 mi South 11.5 mph 18.4 mph N/A   Mostly Cloudy
2:51 AM 25.0 °F 13.1 °F 10.0 °F 53% 30.22 in 10.0 mi South 13.8 mph - N/A   Mostly Cloudy
3:51 AM 26.1 °F 16.2 °F 10.9 °F 53% 30.19 in 10.0 mi South 10.4 mph 19.6 mph N/A   Mostly Cloudy
4:51 AM 26.1 °F 14.0 °F 10.9 °F 53% 30.16 in 10.0 mi South 15.0 mph 27.6 mph N/A   Mostly Cloudy
5:51 AM 27.0 °F 16.1 °F 12.9 °F 56% 30.15 in 10.0 mi South 12.7 mph 24.2 mph N/A   Overcast
6:51 AM 27.0 °F 15.6 °F 12.9 °F 56% 30.14 in 10.0 mi South 13.8 mph 21.9 mph N/A   Mostly Cloudy
7:51 AM 28.0 °F 17.5 °F 14.0 °F 56% 30.14 in 10.0 mi South 12.7 mph 23.0 mph N/A   Mostly Cloudy
8:51 AM 28.9 °F 18.2 °F 16.0 °F 58% 30.13 in 10.0 mi South 13.8 mph 20.7 mph N/A   Mostly Cloudy
9:51 AM 30.0 °F 17.9 °F 18.0 °F 61% 30.12 in 10.0 mi South 18.4 mph 26.5 mph N/A   Mostly Cloudy
10:51 AM 34.0 °F 22.7 °F 19.0 °F 54% 30.09 in 10.0 mi South 19.6 mph 27.6 mph N/A   Mostly Cloudy
11:51 AM 35.1 °F 24.8 °F 19.9 °F 54% 30.05 in 10.0 mi South 17.3 mph 25.3 mph N/A   Mostly Cloudy
12:51 PM 37.0 °F 27.7 °F 21.0 °F 52% 30.02 in 10.0 mi South 16.1 mph - N/A   Mostly Cloudy
1:51 PM 39.0 °F 32.3 °F 21.0 °F 49% 30.01 in 10.0 mi SSE 10.4 mph - N/A   Mostly Cloudy
2:51 PM 41.0 °F 34.3 °F 21.9 °F 47% 29.99 in 10.0 mi South 11.5 mph - N/A   Scattered Clouds
3:51 PM 41.0 °F 35.2 °F 21.9 °F 47% 29.97 in 10.0 mi South 9.2 mph - N/A   Mostly Cloudy
4:51 PM 41.0 °F 34.3 °F 21.9 °F 47% 29.96 in 10.0 mi SSE 11.5 mph - N/A   Mostly Cloudy
5:51 PM 41.0 °F 35.8 °F 23.0 °F 49% 29.95 in 10.0 mi South 8.1 mph - N/A   Mostly Cloudy
6:51 PM 41.0 °F 35.8 °F 23.0 °F 49% 29.94 in 10.0 mi SSE 8.1 mph - N/A   Mostly Cloudy
7:51 PM 39.9 °F 32.9 °F 23.0 °F 51% 29.91 in 10.0 mi South 11.5 mph - N/A   Scattered Clouds
8:51 PM 39.9 °F 33.9 °F 23.0 °F 51% 29.88 in 10.0 mi South 9.2 mph - N/A   Mostly Cloudy
9:51 PM 41.0 °F 35.2 °F 24.1 °F 51% 29.84 in 10.0 mi South 9.2 mph - N/A   Mostly Cloudy
10:51 PM 41.0 °F 32.8 °F 24.1 °F 51% 29.81 in 10.0 mi South 16.1 mph 25.3 mph N/A   Overcast
11:51 PM 41.0 °F 33.5 °F 24.1 °F 51% 29.80 in 10.0 mi South 13.8 mph - N/A   Overcast